SKYSAT-C5 (41772 NORAD) Tracking and Keplerian Element Data

This shows tracking and keplerian element data for the satellite.

Feedback or suggestion? Click here.




ElementValue
Catalog41772
NameSKYSAT-C5
Epoch Orbit43026
Epoch Day159.88241074
Epoch Year2024
RAAN215.3817
Inclination97.1583
Eccentricity0.0012835
Argument of Perigee120.4569
Mean Anonmoly239.7945
Mean Motion15.36348388
Decay Rate0.00021608
L11 41772U 16058C 24159.88241074 .00021608 00000+0 60925-3 0 9997
L22 41772 97.1583 215.3817 0012835 120.4569 239.7945 15.36348388430262



Live tracking and technical data element details for SKYSAT-C5 (NORAD 41772). SKYSAT-C5 can be tracked NOW for your location showing map with azimuth and elevation plus other details from your city location.







IsCatalogInMostPopularTable: catalog: 41772, numindb: 622
Update: records affected: 1



GetName: 41772 SKYSAT-C5

Hit Count: updated at: Mon, 17 Jun 2024 22:42:30 GMT